Theologos P . — SZNB — position and weather

sailwx.info

Track history (hours):
 
Tides and Currents Weather Stations Pressure Air Temp Water Temp Dewpoint Dewpoint Depression Visibility Wind Speed Wind Dir Waves Ship Positions

Theologos P .

Last reported at 2014-Oct-23 21:33 UTC. Time now 2014-Oct-23 21:59 UTC.
Position N 37°28' E 025°20'.

Length 118 m; draft 4.5 m.

Type: Passenger vessel. MMSI: 240521000.

Date/timePositionNaut miles runAvg speedWind from/ knotsBaromVisibWave heightAir tempDewpointWater temp
2014-Oct-23 21:33N 37°28' E 025°20'0 0.0
2014-Oct-23 20:33N 37°28' E 025°20'0 0.0
2014-Oct-23 19:33N 37°28' E 025°20'9 9.0
2014-Oct-23 18:33N 37°32' E 025°10'1717.2
2014-Oct-23 17:34N 37°42' E 024°52'1711.8
2014-Oct-23 16:07N 37°52' E 024°35'1818.2
2014-Oct-23 15:09N 37°58' E 024°13'11 1.9
2014-Oct-23 09:34N 38°01' E 024°01'2017.4
2014-Oct-23 08:23N 37°54' E 024°25'2412.6
2014-Oct-23 06:31N 37°43' E 024°51'1718.2
2014-Oct-23 05:33N 37°32' E 025°09'10 9.7
2014-Oct-23 04:33N 37°28' E 025°20'0 0.0
2014-Oct-23 03:33N 37°28' E 025°20'0 0.0
2014-Oct-23 02:33N 37°28' E 025°20'0 0.0
2014-Oct-23 01:33N 37°28' E 025°20'0 0.0
2014-Oct-23 00:33N 37°28' E 025°20'0 0.0
2014-Oct-22 23:33N 37°28' E 025°20'0 0.0
2014-Oct-22 22:33N 37°28' E 025°20'0 0.0
2014-Oct-22 21:33N 37°28' E 025°20'0 0.0
2014-Oct-22 20:33N 37°28' E 025°20'0 0.0
2014-Oct-22 19:33N 37°28' E 025°20'9 9.0
2014-Oct-22 18:33N 37°32' E 025°10'1817.4
2014-Oct-22 17:31N 37°43' E 024°52'1411.5
2014-Oct-22 16:20N 37°52' E 024°39'31 4.5
2014-Oct-22 09:20N 38°01' E 024°01'4815.5
2014-Oct-22 06:16N 37°41' E 024°55'1318.4
2014-Oct-22 05:33N 37°32' E 025°08'1010.3
2014-Oct-22 04:33N 37°28' E 025°20'0 0.0
2014-Oct-22 03:33N 37°28' E 025°20'0 0.0
2014-Oct-22 02:33N 37°28' E 025°20'0 0.0
2014-Oct-22 01:33N 37°28' E 025°20'0 0.0
2014-Oct-22 00:33N 37°28' E 025°20'0 0.0
2014-Oct-21 23:33N 37°28' E 025°20'0 0.0
2014-Oct-21 22:33N 37°28' E 025°20'0 0.0
2014-Oct-21 21:33N 37°28' E 025°20'0 0.0
2014-Oct-21 20:33N 37°28' E 025°20'0 0.0
2014-Oct-21 19:33N 37°28' E 025°20'9 9.3
2014-Oct-21 18:34N 37°32' E 025°09'1615.9
2014-Oct-21 17:33N 37°42' E 024°53'1312.0
2014-Oct-21 16:29N 37°52' E 024°43'1818.3
2014-Oct-21 15:29N 37°56' E 024°21'17 3.8
2014-Oct-21 11:09N 38°01' E 024°01'0 0.1
2014-Oct-21 09:17N 38°01' E 024°01'1417.6
2014-Oct-21 08:29N 37°57' E 024°18'1818.5
2014-Oct-21 07:31N 37°53' E 024°40'1111.5
2014-Oct-21 06:32N 37°45' E 024°50'1818.7
2014-Oct-21 05:33N 37°33' E 025°07'1111.1
2014-Oct-21 04:33N 37°28' E 025°20'0 0.0
2014-Oct-21 03:33N 37°28' E 025°20'0 0.0
2014-Oct-21 02:33N 37°28' E 025°20'0 0.0
2014-Oct-21 01:33N 37°28' E 025°20'0 0.0
2014-Oct-21 00:33N 37°28' E 025°20'0 0.0
2014-Oct-20 23:33N 37°28' E 025°20'0 0.0
2014-Oct-20 22:33N 37°28' E 025°20'0 0.0
2014-Oct-20 21:33N 37°28' E 025°20'0 0.0
2014-Oct-20 20:33N 37°28' E 025°20'0 0.0
2014-Oct-20 19:33N 37°28' E 025°20'9 9.3
2014-Oct-20 18:33N 37°32' E 025°09'1916.2
2014-Oct-20 17:23N 37°44' E 024°51'1010.9
2014-Oct-20 16:28N 37°52' E 024°43'34 4.8
2014-Oct-20 09:19N 38°01' E 024°01'1818.6
2014-Oct-20 08:20N 37°56' E 024°23'2513.5
2014-Oct-20 06:30N 37°44' E 024°51'1718.4
2014-Oct-20 05:33N 37°33' E 025°07'1111.1
2014-Oct-20 04:33N 37°28' E 025°20'0 0.0
2014-Oct-20 03:33N 37°28' E 025°20'0 0.0
2014-Oct-20 02:24N 37°28' E 025°20'0 0.0
2014-Oct-20 01:31N 37°28' E 025°20'0 0.0
2014-Oct-20 00:28N 37°28' E 025°20'0 0.0
2014-Oct-19 23:32N 37°28' E 025°20'0 0.0
2014-Oct-19 22:33N 37°28' E 025°20'0 0.0
2014-Oct-19 21:33N 37°28' E 025°20'0 0.0
2014-Oct-19 20:33N 37°28' E 025°20'0 0.0
2014-Oct-19 19:33N 37°28' E 025°20'9 9.3
2014-Oct-19 18:33N 37°32' E 025°09'3514.4
2014-Oct-19 16:08N 37°53' E 024°34'1717.8
2014-Oct-19 15:11N 37°58' E 024°13'1016.6
2014-Oct-19 14:33N 38°01' E 024°01'5 4.7
2014-Oct-19 13:33N 37°60' E 024°06'4514.9
2014-Oct-19 10:33N 37°39' E 024°57'1312.7
2014-Oct-19 09:33N 37°32' E 025°10'9 8.8
2014-Oct-19 08:33N 37°28' E 025°20'0 0.0
2014-Oct-19 07:33N 37°28' E 025°20'0 0.0
2014-Oct-19 06:33N 37°28' E 025°20'0 0.0
2014-Oct-19 05:33N 37°28' E 025°20'0 0.0
2014-Oct-19 04:33N 37°28' E 025°20'0 0.0
2014-Oct-19 03:33N 37°28' E 025°20'0 0.0
2014-Oct-19 02:33N 37°28' E 025°20'0 0.0
2014-Oct-19 01:33N 37°28' E 025°20'0 0.0
2014-Oct-19 00:33N 37°28' E 025°20'0 0.0
2014-Oct-18 23:32N 37°28' E 025°20'0 0.0
2014-Oct-18 22:33N 37°28' E 025°20'0 0.0
2014-Oct-18 21:33N 37°28' E 025°20'0 0.0
2014-Oct-18 20:33N 37°28' E 025°20'0 0.0
2014-Oct-18 19:33N 37°28' E 025°20'10 9.6
2014-Oct-18 18:33N 37°32' E 025°09'1715.7
2014-Oct-18 17:30N 37°43' E 024°53'1311.5
2014-Oct-18 16:21N 37°52' E 024°40'2018.2
2014-Oct-18 15:13N 37°57' E 024°15'9 5.3
2014-Oct-18 13:33N 38°00' E 024°05'2118.9
2014-Oct-18 12:27N 37°54' E 024°30'2513.1
2014-Oct-18 10:34N 37°40' E 024°56'1413.7
2014-Oct-18 09:34N 37°32' E 025°10'9 8.9
2014-Oct-18 08:33N 37°28' E 025°20'0 0.0
2014-Oct-18 07:33N 37°28' E 025°20'0 0.0
2014-Oct-18 06:33N 37°28' E 025°20'0 0.0
2014-Oct-18 05:33N 37°28' E 025°20'0 0.0
2014-Oct-18 04:33N 37°28' E 025°20'0 0.0
2014-Oct-18 03:33N 37°28' E 025°20'0 0.0
2014-Oct-18 02:33N 37°28' E 025°20'0 0.0
2014-Oct-18 01:33N 37°28' E 025°20'0 0.0
2014-Oct-18 00:33N 37°28' E 025°20'0 0.0
2014-Oct-17 23:33N 37°28' E 025°20'0 0.0
2014-Oct-17 22:33N 37°28' E 025°20'0 0.0
2014-Oct-17 21:33N 37°28' E 025°20'0 0.0
2014-Oct-17 20:29N 37°28' E 025°20'0 0.0
2014-Oct-17 19:32N 37°28' E 025°20'9 9.3
2014-Oct-17 18:33N 37°32' E 025°09'1817.1
2014-Oct-17 17:29N 37°44' E 024°51'1211.0
2014-Oct-17 16:24N 37°52' E 024°41'1618.9
2014-Oct-17 15:33N 37°56' E 024°21'17 2.7
2014-Oct-17 09:22N 38°01' E 024°01'1417.3
2014-Oct-17 08:33N 37°56' E 024°17'2814.0
2014-Oct-17 06:33N 37°45' E 024°50'1918.4
2014-Oct-17 05:33N 37°33' E 025°07'1111.0
2014-Oct-17 04:33N 37°28' E 025°20'0 0.0
2014-Oct-17 03:33N 37°28' E 025°20'0 0.0
2014-Oct-17 02:33N 37°28' E 025°20'0 0.0
2014-Oct-17 01:33N 37°28' E 025°20'0 0.0
2014-Oct-17 00:33N 37°28' E 025°20'0 0.0
2014-Oct-16 23:33N 37°28' E 025°20'0 0.0
2014-Oct-16 22:33N 37°28' E 025°20'0 0.0
2014-Oct-16 21:33N 37°28' E 025°20'0 0.0
2014-Oct-16 20:33N 37°28' E 025°20'0 0.0
2014-Oct-16 19:33N 37°28' E 025°20'9 9.3
2014-Oct-16 18:33N 37°32' E 025°09'1716.7
2014-Oct-16 17:34N 37°42' E 024°53'1412.1
2014-Oct-16 16:24N 37°52' E 024°40'1618.5
2014-Oct-16 15:33N 37°56' E 024°21'17 2.6
2014-Oct-16 09:16N 38°01' E 024°01'1317.7
2014-Oct-16 08:31N 37°57' E 024°17'1818.7
2014-Oct-16 07:33N 37°53' E 024°39'1111.0
2014-Oct-16 06:33N 37°45' E 024°49'1918.8
2014-Oct-16 05:33N 37°33' E 025°07'1111.3
2014-Oct-16 04:33N 37°28' E 025°20'0 0.0
2014-Oct-16 03:33N 37°28' E 025°20'0 0.0
2014-Oct-16 02:33N 37°28' E 025°20'0 0.0
2014-Oct-16 01:33N 37°28' E 025°20'0 0.0
2014-Oct-16 00:33N 37°28' E 025°20'0 0.0
2014-Oct-15 23:33N 37°28' E 025°20'0 0.0
2014-Oct-15 22:33N 37°28' E 025°20'0 0.0
2014-Oct-15 21:33N 37°28' E 025°20'0 0.0
2014-Oct-15 20:33N 37°28' E 025°20'0 0.0
2014-Oct-15 19:33N 37°28' E 025°20'9 9.2
2014-Oct-15 18:33N 37°32' E 025°09'1615.9
2014-Oct-15 17:32N 37°42' E 024°53'1313.3
2014-Oct-15 16:33N 37°53' E 024°44'1717.5
2014-Oct-15 15:33N 37°56' E 024°22'1817.5
2014-Oct-15 14:32N 38°01' E 024°01'0 0.1
2014-Oct-15 13:33N 38°01' E 024°01'0 0.0
2014-Oct-15 12:28N 38°01' E 024°01'0 0.0
2014-Oct-15 11:32N 38°01' E 024°01'0 0.0
2014-Oct-15 09:17N 38°01' E 024°01'1317.7
2014-Oct-15 08:33N 37°57' E 024°16'1918.9
2014-Oct-15 07:32N 37°52' E 024°40'1010.1
2014-Oct-15 06:33N 37°46' E 024°49'1919.0
2014-Oct-15 05:33N 37°33' E 025°07'1111.5
2014-Oct-15 04:33N 37°28' E 025°20'0 0.0
2014-Oct-15 03:33N 37°28' E 025°20'0 0.0
2014-Oct-15 02:33N 37°28' E 025°20'0 0.0
2014-Oct-15 01:33N 37°28' E 025°20'0 0.0
2014-Oct-15 00:33N 37°28' E 025°20'0 0.0
2014-Oct-14 23:33N 37°28' E 025°20'0 0.0
2014-Oct-14 22:33N 37°28' E 025°20'0 0.0
2014-Oct-14 21:33N 37°28' E 025°20'0 0.0
2014-Oct-14 20:33N 37°28' E 025°20'0 0.0
2014-Oct-14 19:33N 37°28' E 025°20'9 9.3
2014-Oct-14 18:33N 37°32' E 025°09'1615.7
2014-Oct-14 17:33N 37°42' E 024°54'1712.3
2014-Oct-14 16:09N 37°53' E 024°36'1818.5
2014-Oct-14 15:11N 37°57' E 024°15'12 3.0
2014-Oct-14 11:15N 38°01' E 024°01'1 0.4
2014-Oct-14 09:10N 38°01' E 024°02'1519.0
2014-Oct-14 08:22N 37°57' E 024°20'2614.1
2014-Oct-14 06:33N 37°45' E 024°49'1918.9
2014-Oct-14 05:33N 37°33' E 025°07'1111.3
2014-Oct-14 04:33N 37°28' E 025°20'0 0.0
2014-Oct-14 03:34N 37°28' E 025°20'0 0.0
2014-Oct-14 02:33N 37°28' E 025°20'0 0.0
2014-Oct-14 01:33N 37°28' E 025°20'0 0.0
2014-Oct-14 00:33N 37°28' E 025°20'0 0.0
2014-Oct-13 23:34N 37°28' E 025°20'0 0.0
2014-Oct-13 22:33N 37°28' E 025°20'0 0.0
2014-Oct-13 21:34N 37°28' E 025°20'  
Track history (hours):
 
Tides and Currents Weather Stations Pressure Air Temp Water Temp Dewpoint Dewpoint Depression Visibility Wind Speed Wind Dir Waves Ship Positions

Theologos P .

Last reported at 2014-Oct-23 21:33 UTC. Time now 2014-Oct-23 21:59 UTC.
Position N 37°28' E 025°20'.

Length 118 m; draft 4.5 m.

Type: Passenger vessel. MMSI: 240521000.

Date/timePositionNaut miles runAvg speedWind from/ knotsBaromVisibWave heightAir tempDewpointWater temp
2014-Oct-23 21:33N 37°28' E 025°20'0 0.0
2014-Oct-23 20:33N 37°28' E 025°20'0 0.0
2014-Oct-23 19:33N 37°28' E 025°20'9 9.0
2014-Oct-23 18:33N 37°32' E 025°10'1717.2
2014-Oct-23 17:34N 37°42' E 024°52'1711.8
2014-Oct-23 16:07N 37°52' E 024°35'1818.2
2014-Oct-23 15:09N 37°58' E 024°13'11 1.9
2014-Oct-23 09:34N 38°01' E 024°01'2017.4
2014-Oct-23 08:23N 37°54' E 024°25'2412.6
2014-Oct-23 06:31N 37°43' E 024°51'1718.2
2014-Oct-23 05:33N 37°32' E 025°09'10 9.7
2014-Oct-23 04:33N 37°28' E 025°20'0 0.0
2014-Oct-23 03:33N 37°28' E 025°20'0 0.0
2014-Oct-23 02:33N 37°28' E 025°20'0 0.0
2014-Oct-23 01:33N 37°28' E 025°20'0 0.0
2014-Oct-23 00:33N 37°28' E 025°20'0 0.0
2014-Oct-22 23:33N 37°28' E 025°20'0 0.0
2014-Oct-22 22:33N 37°28' E 025°20'0 0.0
2014-Oct-22 21:33N 37°28' E 025°20'0 0.0
2014-Oct-22 20:33N 37°28' E 025°20'0 0.0
2014-Oct-22 19:33N 37°28' E 025°20'9 9.0
2014-Oct-22 18:33N 37°32' E 025°10'1817.4
2014-Oct-22 17:31N 37°43' E 024°52'1411.5
2014-Oct-22 16:20N 37°52' E 024°39'31 4.5
2014-Oct-22 09:20N 38°01' E 024°01'4815.5
2014-Oct-22 06:16N 37°41' E 024°55'1318.4
2014-Oct-22 05:33N 37°32' E 025°08'1010.3
2014-Oct-22 04:33N 37°28' E 025°20'0 0.0
2014-Oct-22 03:33N 37°28' E 025°20'0 0.0
2014-Oct-22 02:33N 37°28' E 025°20'0 0.0
2014-Oct-22 01:33N 37°28' E 025°20'0 0.0
2014-Oct-22 00:33N 37°28' E 025°20'0 0.0
2014-Oct-21 23:33N 37°28' E 025°20'0 0.0
2014-Oct-21 22:33N 37°28' E 025°20'0 0.0
2014-Oct-21 21:33N 37°28' E 025°20'0 0.0
2014-Oct-21 20:33N 37°28' E 025°20'0 0.0
2014-Oct-21 19:33N 37°28' E 025°20'9 9.3
2014-Oct-21 18:34N 37°32' E 025°09'1615.9
2014-Oct-21 17:33N 37°42' E 024°53'1312.0
2014-Oct-21 16:29N 37°52' E 024°43'1818.3
2014-Oct-21 15:29N 37°56' E 024°21'17 3.8
2014-Oct-21 11:09N 38°01' E 024°01'0 0.1
2014-Oct-21 09:17N 38°01' E 024°01'1417.6
2014-Oct-21 08:29N 37°57' E 024°18'1818.5
2014-Oct-21 07:31N 37°53' E 024°40'1111.5
2014-Oct-21 06:32N 37°45' E 024°50'1818.7
2014-Oct-21 05:33N 37°33' E 025°07'1111.1
2014-Oct-21 04:33N 37°28' E 025°20'0 0.0
2014-Oct-21 03:33N 37°28' E 025°20'0 0.0
2014-Oct-21 02:33N 37°28' E 025°20'0 0.0
2014-Oct-21 01:33N 37°28' E 025°20'0 0.0
2014-Oct-21 00:33N 37°28' E 025°20'0 0.0
2014-Oct-20 23:33N 37°28' E 025°20'0 0.0
2014-Oct-20 22:33N 37°28' E 025°20'0 0.0
2014-Oct-20 21:33N 37°28' E 025°20'0 0.0
2014-Oct-20 20:33N 37°28' E 025°20'0 0.0
2014-Oct-20 19:33N 37°28' E 025°20'9 9.3
2014-Oct-20 18:33N 37°32' E 025°09'1916.2
2014-Oct-20 17:23N 37°44' E 024°51'1010.9
2014-Oct-20 16:28N 37°52' E 024°43'34 4.8
2014-Oct-20 09:19N 38°01' E 024°01'1818.6
2014-Oct-20 08:20N 37°56' E 024°23'2513.5
2014-Oct-20 06:30N 37°44' E 024°51'1718.4
2014-Oct-20 05:33N 37°33' E 025°07'1111.1
2014-Oct-20 04:33N 37°28' E 025°20'0 0.0
2014-Oct-20 03:33N 37°28' E 025°20'0 0.0
2014-Oct-20 02:24N 37°28' E 025°20'0 0.0
2014-Oct-20 01:31N 37°28' E 025°20'0 0.0
2014-Oct-20 00:28N 37°28' E 025°20'0 0.0
2014-Oct-19 23:32N 37°28' E 025°20'0 0.0
2014-Oct-19 22:33N 37°28' E 025°20'0 0.0
2014-Oct-19 21:33N 37°28' E 025°20'0 0.0
2014-Oct-19 20:33N 37°28' E 025°20'0 0.0
2014-Oct-19 19:33N 37°28' E 025°20'9 9.3
2014-Oct-19 18:33N 37°32' E 025°09'3514.4
2014-Oct-19 16:08N 37°53' E 024°34'1717.8
2014-Oct-19 15:11N 37°58' E 024°13'1016.6
2014-Oct-19 14:33N 38°01' E 024°01'5 4.7
2014-Oct-19 13:33N 37°60' E 024°06'4514.9
2014-Oct-19 10:33N 37°39' E 024°57'1312.7
2014-Oct-19 09:33N 37°32' E 025°10'9 8.8
2014-Oct-19 08:33N 37°28' E 025°20'0 0.0
2014-Oct-19 07:33N 37°28' E 025°20'0 0.0
2014-Oct-19 06:33N 37°28' E 025°20'0 0.0
2014-Oct-19 05:33N 37°28' E 025°20'0 0.0
2014-Oct-19 04:33N 37°28' E 025°20'0 0.0
2014-Oct-19 03:33N 37°28' E 025°20'0 0.0
2014-Oct-19 02:33N 37°28' E 025°20'0 0.0
2014-Oct-19 01:33N 37°28' E 025°20'0 0.0
2014-Oct-19 00:33N 37°28' E 025°20'0 0.0
2014-Oct-18 23:32N 37°28' E 025°20'0 0.0
2014-Oct-18 22:33N 37°28' E 025°20'0 0.0
2014-Oct-18 21:33N 37°28' E 025°20'0 0.0
2014-Oct-18 20:33N 37°28' E 025°20'0 0.0
2014-Oct-18 19:33N 37°28' E 025°20'10 9.6
2014-Oct-18 18:33N 37°32' E 025°09'1715.7
2014-Oct-18 17:30N 37°43' E 024°53'1311.5
2014-Oct-18 16:21N 37°52' E 024°40'2018.2
2014-Oct-18 15:13N 37°57' E 024°15'9 5.3
2014-Oct-18 13:33N 38°00' E 024°05'2118.9
2014-Oct-18 12:27N 37°54' E 024°30'2513.1
2014-Oct-18 10:34N 37°40' E 024°56'1413.7
2014-Oct-18 09:34N 37°32' E 025°10'9 8.9
2014-Oct-18 08:33N 37°28' E 025°20'0 0.0
2014-Oct-18 07:33N 37°28' E 025°20'0 0.0
2014-Oct-18 06:33N 37°28' E 025°20'0 0.0
2014-Oct-18 05:33N 37°28' E 025°20'0 0.0
2014-Oct-18 04:33N 37°28' E 025°20'0 0.0
2014-Oct-18 03:33N 37°28' E 025°20'0 0.0
2014-Oct-18 02:33N 37°28' E 025°20'0 0.0
2014-Oct-18 01:33N 37°28' E 025°20'0 0.0
2014-Oct-18 00:33N 37°28' E 025°20'0 0.0
2014-Oct-17 23:33N 37°28' E 025°20'0 0.0
2014-Oct-17 22:33N 37°28' E 025°20'0 0.0
2014-Oct-17 21:33N 37°28' E 025°20'0 0.0
2014-Oct-17 20:29N 37°28' E 025°20'0 0.0
2014-Oct-17 19:32N 37°28' E 025°20'9 9.3
2014-Oct-17 18:33N 37°32' E 025°09'1817.1
2014-Oct-17 17:29N 37°44' E 024°51'1211.0
2014-Oct-17 16:24N 37°52' E 024°41'1618.9
2014-Oct-17 15:33N 37°56' E 024°21'17 2.7
2014-Oct-17 09:22N 38°01' E 024°01'1417.3
2014-Oct-17 08:33N 37°56' E 024°17'2814.0
2014-Oct-17 06:33N 37°45' E 024°50'1918.4
2014-Oct-17 05:33N 37°33' E 025°07'1111.0
2014-Oct-17 04:33N 37°28' E 025°20'0 0.0
2014-Oct-17 03:33N 37°28' E 025°20'0 0.0
2014-Oct-17 02:33N 37°28' E 025°20'0 0.0
2014-Oct-17 01:33N 37°28' E 025°20'0 0.0
2014-Oct-17 00:33N 37°28' E 025°20'0 0.0
2014-Oct-16 23:33N 37°28' E 025°20'0 0.0
2014-Oct-16 22:33N 37°28' E 025°20'0 0.0
2014-Oct-16 21:33N 37°28' E 025°20'0 0.0
2014-Oct-16 20:33N 37°28' E 025°20'0 0.0
2014-Oct-16 19:33N 37°28' E 025°20'9 9.3
2014-Oct-16 18:33N 37°32' E 025°09'1716.7
2014-Oct-16 17:34N 37°42' E 024°53'1412.1
2014-Oct-16 16:24N 37°52' E 024°40'1618.5
2014-Oct-16 15:33N 37°56' E 024°21'17 2.6
2014-Oct-16 09:16N 38°01' E 024°01'1317.7
2014-Oct-16 08:31N 37°57' E 024°17'1818.7
2014-Oct-16 07:33N 37°53' E 024°39'1111.0
2014-Oct-16 06:33N 37°45' E 024°49'1918.8
2014-Oct-16 05:33N 37°33' E 025°07'1111.3
2014-Oct-16 04:33N 37°28' E 025°20'0 0.0
2014-Oct-16 03:33N 37°28' E 025°20'0 0.0
2014-Oct-16 02:33N 37°28' E 025°20'0 0.0
2014-Oct-16 01:33N 37°28' E 025°20'0 0.0
2014-Oct-16 00:33N 37°28' E 025°20'0 0.0
2014-Oct-15 23:33N 37°28' E 025°20'0 0.0
2014-Oct-15 22:33N 37°28' E 025°20'0 0.0
2014-Oct-15 21:33N 37°28' E 025°20'0 0.0
2014-Oct-15 20:33N 37°28' E 025°20'0 0.0
2014-Oct-15 19:33N 37°28' E 025°20'9 9.2
2014-Oct-15 18:33N 37°32' E 025°09'1615.9
2014-Oct-15 17:32N 37°42' E 024°53'1313.3
2014-Oct-15 16:33N 37°53' E 024°44'1717.5
2014-Oct-15 15:33N 37°56' E 024°22'1817.5
2014-Oct-15 14:32N 38°01' E 024°01'0 0.1
2014-Oct-15 13:33N 38°01' E 024°01'0 0.0
2014-Oct-15 12:28N 38°01' E 024°01'0 0.0
2014-Oct-15 11:32N 38°01' E 024°01'0 0.0
2014-Oct-15 09:17N 38°01' E 024°01'1317.7
2014-Oct-15 08:33N 37°57' E 024°16'1918.9
2014-Oct-15 07:32N 37°52' E 024°40'1010.1
2014-Oct-15 06:33N 37°46' E 024°49'1919.0
2014-Oct-15 05:33N 37°33' E 025°07'1111.5
2014-Oct-15 04:33N 37°28' E 025°20'0 0.0
2014-Oct-15 03:33N 37°28' E 025°20'0 0.0
2014-Oct-15 02:33N 37°28' E 025°20'0 0.0
2014-Oct-15 01:33N 37°28' E 025°20'0 0.0
2014-Oct-15 00:33N 37°28' E 025°20'0 0.0
2014-Oct-14 23:33N 37°28' E 025°20'0 0.0
2014-Oct-14 22:33N 37°28' E 025°20'0 0.0
2014-Oct-14 21:33N 37°28' E 025°20'0 0.0
2014-Oct-14 20:33N 37°28' E 025°20'0 0.0
2014-Oct-14 19:33N 37°28' E 025°20'9 9.3
2014-Oct-14 18:33N 37°32' E 025°09'1615.7
2014-Oct-14 17:33N 37°42' E 024°54'1712.3
2014-Oct-14 16:09N 37°53' E 024°36'1818.5
2014-Oct-14 15:11N 37°57' E 024°15'12 3.0
2014-Oct-14 11:15N 38°01' E 024°01'1 0.4
2014-Oct-14 09:10N 38°01' E 024°02'1519.0
2014-Oct-14 08:22N 37°57' E 024°20'2614.1
2014-Oct-14 06:33N 37°45' E 024°49'1918.9
2014-Oct-14 05:33N 37°33' E 025°07'1111.3
2014-Oct-14 04:33N 37°28' E 025°20'0 0.0
2014-Oct-14 03:34N 37°28' E 025°20'0 0.0
2014-Oct-14 02:33N 37°28' E 025°20'0 0.0
2014-Oct-14 01:33N 37°28' E 025°20'0 0.0
2014-Oct-14 00:33N 37°28' E 025°20'0 0.0
2014-Oct-13 23:34N 37°28' E 025°20'0 0.0
2014-Oct-13 22:33N 37°28' E 025°20'0 0.0
2014-Oct-13 21:34N 37°28' E 025°20'  

Dump ship's entire track history